Simultaneous Nadir Overpasses (SNOs) Predictions

Prediction of SNOs between GOES-17 and NPP Satellite Orbit:

Table of predicted SNOs for the next 14.0 days since TLE Epoch: 6/8/2024
Index Date Time (GOES-17) GOES-17 Lat,Lon NPP Lat,Lon Distance(km) Time Diff (sec)
1 06/08/2024 08:05:11 -0.02,-104.71 -0.93,-100.53 475.87 80
2 06/09/2024 20:27:04 0.00,-104.71 -0.26,-105.82 126.96 80
3 06/10/2024 20:10:58 -0.01,-104.71 0.76,-101.28 390.53 80
4 06/12/2024 08:30:03 0.01,-104.71 0.40,-106.54 208.75 80
5 06/13/2024 08:13:56 0.02,-104.71 -0.56,-101.99 308.84 80
6 06/14/2024 20:33:09 -0.02,-104.71 -0.61,-107.29 293.78 80
7 06/15/2024 20:17:03 -0.02,-104.72 0.42,-102.75 223.89 80
8 06/17/2024 08:36:08 0.02,-104.72 0.73,-108.02 375.24 80
9 06/18/2024 08:20:00 0.02,-104.72 -0.24,-103.47 142.18 80
10 06/19/2024 20:39:14 -0.01,-104.72 -0.91,-108.77 461.10 80
11 06/20/2024 20:23:07 -0.00,-104.72 0.12,-104.23 56.12 80
